This demonstration page uses our WeatherBlox Daily Observations layout. Learn more.

Left ArrowRight Arrow

Hourly Observations for May 26, 2017

Temp ( °F °C ) Dew Point ( °F °C ) Humidity (%) Winds ( mph kmh ) Pressure ( in mb ) Visibility ( mi km ) Precip ( " mm )
12:15 am 00:15 Clear 57 14 57 14 100 100 N N/A 29.59 1002 10 16 N/A
12:35 am 00:35 Clear 57 14 57 14 100 100 WNW 8 13 29.59 1002 10 16 N/A
12:55 am 00:55 Clear 57 14 57 14 100 100 WNW 10 17 29.59 1002 10 16 N/A
1:15 am 01:15 Partly Cloudy 57 14 57 14 100 100 WNW 8 13 29.59 1002 10 16 N/A
1:35 am 01:35 Partly Cloudy 57 14 57 14 100 100 NW 7 11 29.59 1002 10 16 N/A
1:55 am 01:55 Clear 59 15 57 14 94 94 NW 7 11 29.59 1002 10 16 N/A
2:15 am 02:15 Partly Cloudy 59 15 57 14 94 94 N N/A 29.59 1002 10 16 N/A
2:35 am 02:35 Clear 55 13 55 13 100 100 N N/A 29.59 1002 10 16 N/A
2:55 am 02:55 Partly Cloudy 55 13 55 13 100 100 W 3 6 29.62 1003 10 16 N/A
3:15 am 03:15 Mostly Cloudy 57 14 57 14 100 100 N N/A 29.62 1003 10 16 N/A
3:35 am 03:35 Cloudy with Drizzle 57 14 57 14 100 100 N N/A 29.62 1003 10 16 N/A
3:55 am 03:55 Cloudy with Light Rain 57 14 57 14 100 100 N N/A 29.62 1003 10 16 N/A
4:10 am 04:10 Cloudy 57 14 57 14 100 100 SW 3 6 29.62 1003 10 16 N/A
4:35 am 04:35 Cloudy 59 15 59 15 100 100 WNW 8 13 29.65 1004 10 16 N/A
4:55 am 04:55 Cloudy 59 15 59 15 100 100 W 8 13 29.65 1004 10 16 N/A
5:15 am 05:15 Cloudy 59 15 59 15 100 100 W 12 19 29.65 1004 10 16 N/A
5:35 am 05:35 Cloudy 61 16 59 15 94 94 W 9 15 29.68 1005 10 16 N/A
5:55 am 05:55 Cloudy 61 16 59 15 94 94 W 5 7 29.68 1005 10 16 N/A
6:15 am 06:15 Cloudy 61 16 59 15 94 94 W 6 9 29.68 1005 10 16 N/A
6:35 am 06:35 Partly Cloudy 61 16 57 14 88 88 WSW 6 9 29.68 1005 10 16 N/A
6:55 am 06:55 Partly Cloudy 61 16 57 14 88 88 WSW 5 7 29.71 1006 10 16 N/A
7:15 am 07:15 Partly Cloudy 63 17 59 15 88 88 WSW 7 11 29.71 1006 10 16 N/A
7:35 am 07:35 Sunny 63 17 59 15 88 88 WSW 7 11 29.71 1006 10 16 N/A
7:55 am 07:55 Sunny 64 18 59 15 83 83 WSW 5 7 29.74 1007 10 16 N/A
8:15 am 08:15 Sunny 66 19 61 16 83 83 WSW 5 7 29.74 1007 10 16 N/A
8:35 am 08:35 Partly Cloudy 68 20 61 16 78 78 W 8 13 29.74 1007 10 16 N/A
8:55 am 08:55 Cloudy 68 20 61 16 78 78 WNW 13 20 29.74 1007 10 16 N/A
9:15 am 09:15 Cloudy 68 20 61 16 78 78 WNW 14 22 29.74 1007 10 16 N/A
9:35 am 09:35 Cloudy 70 21 61 16 73 73 WNW 16 26 29.77 1008 10 16 N/A
9:55 am 09:55 Cloudy 70 21 61 16 73 73 W 8 13 29.77 1008 10 16 N/A
10:15 am 10:15 Cloudy 68 20 61 16 78 78 W 20 31 29.77 1008 10 16 N/A
10:35 am 10:35 Cloudy 68 20 61 16 78 78 W 17 28 29.77 1008 10 16 N/A
10:55 am 10:55 Cloudy 68 20 61 16 78 78 W 14 22 29.77 1008 10 16 N/A
11:15 am 11:15 Cloudy 68 20 63 17 83 83 WNW 9 15 29.80 1009 10 16 N/A
11:35 am 11:35 Cloudy 70 21 63 17 78 78 WNW 14 22 29.80 1009 10 16 N/A
11:55 am 11:55 Partly Cloudy 72 22 63 17 73 73 NW 21 33 29.77 1008 10 16 N/A
12:15 pm 12:15 Sunny 73 23 63 17 69 69 WNW 17 28 29.77 1008 10 16 N/A
12:35 pm 12:35 Sunny 73 23 61 16 65 65 WNW 26 43 29.77 1008 10 16 N/A
12:55 pm 12:55 Partly Cloudy 73 23 61 16 65 65 WNW 21 33 29.77 1008 10 16 N/A
1:15 pm 13:15 Partly Cloudy 75 24 61 16 61 61 WNW 23 37 29.77 1008 10 16 N/A
1:35 pm 13:35 Partly Cloudy 75 24 61 16 61 61 WNW 24 39 29.77 1008 10 16 N/A
1:55 pm 13:55 Mostly Cloudy 77 25 61 16 57 57 WNW 20 31 29.77 1008 10 16 N/A
2:15 pm 14:15 Partly Cloudy 75 24 61 16 61 61 WNW 23 37 29.77 1008 10 16 N/A
2:55 pm 14:55 Mostly Cloudy 77 25 61 16 57 57 WNW 18 30 29.80 1009 10 16 N/A
3:15 pm 15:15 Partly Cloudy 77 25 61 16 57 57 WNW 18 30 29.80 1009 10 16 N/A
3:35 pm 15:35 Partly Cloudy 77 25 59 15 54 54 WNW 30 48 29.80 1009 10 16 N/A
3:55 pm 15:55 Partly Cloudy 75 24 59 15 57 57 WNW 18 30 29.80 1009 10 16 N/A
4:15 pm 16:15 Mostly Cloudy 73 23 59 15 61 61 NW 13 20 29.80 1009 10 16 N/A
4:35 pm 16:35 Cloudy 73 23 59 15 61 61 WNW 16 26 29.80 1009 10 16 N/A
4:55 pm 16:55 Mostly Cloudy 73 23 59 15 61 61 WNW 15 24 29.80 1009 10 16 N/A
5:15 pm 17:15 Mostly Cloudy 73 23 59 15 61 61 NW 14 22 29.83 1010 10 16 N/A
5:35 pm 17:35 Mostly Cloudy 73 23 59 15 61 61 NW 18 30 29.83 1010 10 16 N/A
5:55 pm 17:55 Mostly Cloudy 73 23 59 15 61 61 NW 13 20 29.83 1010 10 16 N/A
6:15 pm 18:15 Cloudy 73 23 59 15 61 61 NNW 13 20 29.83 1010 10 16 N/A
6:35 pm 18:35 Partly Cloudy 73 23 57 14 57 57 NW 12 19 29.83 1010 10 16 N/A
6:55 pm 18:55 Partly Cloudy 73 23 57 14 57 57 NNW 13 20 29.85 1011 10 16 N/A
7:15 pm 19:15 Cloudy 73 23 59 15 61 61 NNW 13 20 29.85 1011 10 16 N/A
7:35 pm 19:35 Partly Cloudy 70 21 59 15 69 69 NW 9 15 29.88 1012 10 16 N/A
7:55 pm 19:55 Sunny 70 21 59 15 69 69 NNW 9 15 29.88 1012 10 16 N/A
8:15 pm 20:15 Sunny 70 21 59 15 69 69 N 6 9 29.88 1012 10 16 N/A
8:35 pm 20:35 Clear 68 20 59 15 73 73 NNW 5 7 29.88 1012 10 16 N/A
8:55 pm 20:55 Clear 68 20 59 15 73 73 N 3 6 29.88 1012 10 16 N/A
9:15 pm 21:15 Clear 66 19 57 14 73 73 N 5 7 29.88 1012 10 16 N/A
9:35 pm 21:35 Clear 66 19 59 15 78 78 N N/A 29.88 1012 10 16 N/A
9:55 pm 21:55 Clear 64 18 57 14 78 78 NNW 3 6 29.91 1013 10 16 N/A
10:15 pm 22:15 Clear 63 17 59 15 88 88 N N/A 29.91 1013 10 16 N/A
10:35 pm 22:35 Clear 63 17 59 15 88 88 N N/A 29.91 1013 10 16 N/A
10:55 pm 22:55 Clear 63 17 59 15 88 88 N N/A 29.91 1013 10 16 N/A
11:15 pm 23:15 Clear 63 17 59 15 88 88 N N/A 29.91 1013 10 16 N/A
11:35 pm 23:35 Partly Cloudy 61 16 59 15 94 94 N N/A 29.91 1013 10 16 N/A
11:55 pm 23:55 Partly Cloudy 61 16 59 15 94 94 N N/A 29.94 1014 10 16 N/A

Powered by AerisWeather